| time (UTC) | temp F | wind direction | speed knots | gust knots | rain 1hr in | rain 24hr in | rain mn in | humidity % | barometer mb |
| 20260504040025 | 59 | 214 | 0.0 | 3.5 | 0.00 | 0.00 | 0.00 | 58 | 1005.6 |
| 20260504034522 | 60 | 210 | 0.9 | 3.5 | 0.00 | 0.00 | 0.00 | 57 | 1005.6 |
| 20260504033019 | 61 | 210 | 1.7 | 4.3 | 0.00 | 0.00 | 0.00 | 56 | 1005.8 |
| 20260504031515 | 61 | 171 | 0.9 | 4.3 | 0.00 | 0.00 | 0.00 | 55 | 1006.0 |
| 20260504030021 | 62 | 257 | 1.7 | 5.2 | 0.00 | 0.00 | 0.00 | 54 | 1006.0 |
| 20260504024512 | 62 | 247 | 1.7 | 4.3 | 0.00 | 0.00 | 0.00 | 53 | 1005.9 |
| 20260504023005 | 62 | 175 | 0.9 | 5.2 | 0.00 | 0.00 | 0.00 | 53 | 1005.9 |
| 20260504021507 | 63 | 180 | 1.7 | 5.2 | 0.00 | 0.00 | 0.00 | 52 | 1005.9 |
| 20260504020026 | 63 | 200 | 0.9 | 7.8 | 0.00 | 0.00 | 0.00 | 51 | 1005.8 |
| 20260504014533 | 63 | 214 | 1.7 | 6.1 | 0.00 | 0.00 | 0.00 | 51 | 1005.5 |
| 20260504013031 | 64 | 211 | 0.9 | 6.1 | 0.00 | 0.00 | 0.00 | 50 | 1005.4 |
| 20260504011521 | 64 | 239 | 0.9 | 6.1 | 0.00 | 0.00 | 0.00 | 49 | 1005.2 |
| 20260504010019 | 65 | 242 | 0.9 | 3.5 | 0.00 | 0.00 | 0.00 | 47 | 1005.1 |
| 20260504004532 | 66 | 206 | 1.7 | 7.0 | 0.00 | 0.00 | 0.00 | 45 | 1005.3 |
| 20260504003008 | 67 | 237 | 1.7 | 12.2 | 0.00 | 0.00 | 0.00 | 44 | 1005.3 |
| 20260504001528 | 67 | 239 | 2.6 | 7.8 | 0.00 | 0.00 | 0.00 | 43 | 1005.2 |
| 20260504000023 | 67 | 231 | 1.7 | 13.0 | 0.00 | 0.00 | 0.00 | 42 | 1005.3 |
| 20260503234523 | 68 | 247 | 5.2 | 10.4 | 0.00 | 0.00 | 0.00 | 42 | 1005.2 |
| 20260503233021 | 68 | 212 | 2.6 | 8.7 | 0.00 | 0.00 | 0.00 | 41 | 1005.3 |
| 20260503231520 | 68 | 199 | 5.2 | 11.3 | 0.00 | 0.00 | 0.00 | 40 | 1005.4 |
| 20260503230019 | 68 | 234 | 1.7 | 8.7 | 0.00 | 0.00 | 0.00 | 41 | 1005.5 |
| 20260503224513 | 67 | 226 | 4.3 | 14.8 | 0.00 | 0.00 | 0.00 | 40 | 1005.7 |
| 20260503223028 | 67 | 226 | 3.5 | 13.0 | 0.00 | 0.00 | 0.00 | 40 | 1005.8 |
| 20260503221526 | 67 | 193 | 3.5 | 13.9 | 0.00 | 0.00 | 0.00 | 40 | 1006.1 |
| 20260503220038 | 67 | 185 | 4.3 | 13.9 | 0.00 | 0.00 | 0.00 | 39 | 1006.1 |
| 20260503214522 | 67 | 185 | 6.1 | 17.4 | 0.00 | 0.00 | 0.00 | 39 | 1006.1 |
| 20260503213022 | 67 | 233 | 4.3 | 11.3 | 0.00 | 0.00 | 0.00 | 38 | 1006.4 |
| 20260503211521 | 67 | 256 | 5.2 | 14.8 | 0.00 | 0.00 | 0.00 | 37 | 1006.7 |
| 20260503210019 | 67 | 256 | 8.7 | 26.1 | 0.00 | 0.00 | 0.00 | 37 | 1006.9 |
| 20260503204527 | 67 | 231 | 5.2 | 17.4 | 0.00 | 0.00 | 0.00 | 38 | 1007.2 |
| 20260503203032 | 68 | 268 | 4.3 | 10.4 | 0.00 | 0.00 | 0.00 | 39 | 1007.6 |
| 20260503201511 | 65 | 157 | 4.3 | 15.6 | 0.00 | 0.00 | 0.00 | 42 | 1007.9 |
| 20260503200010 | 64 | 245 | 4.3 | 12.2 | 0.00 | 0.00 | 0.00 | 45 | 1008.1 |
| 20260503194507 | 63 | 214 | 3.5 | 12.2 | 0.00 | 0.00 | 0.00 | 47 | 1008.3 |
| 20260503193006 | 62 | 212 | 6.1 | 13.0 | 0.00 | 0.00 | 0.00 | 46 | 1008.5 |
| 20260503191505 | 61 | 238 | 5.2 | 13.9 | 0.00 | 0.00 | 0.00 | 47 | 1008.7 |
| 20260503190004 | 59 | 121 | 4.3 | 13.0 | 0.00 | 0.00 | 0.00 | 49 | 1008.8 |
| 20260503184523 | 59 | 199 | 6.1 | 17.4 | 0.00 | 0.00 | 0.00 | 50 | 1009.3 |
| 20260503183018 | 58 | 199 | 5.2 | 11.3 | 0.00 | 0.00 | 0.00 | 53 | 1009.6 |
| 20260503181514 | 56 | 243 | 3.5 | 11.3 | 0.00 | 0.00 | 0.00 | 57 | 1009.9 |
| 20260503180011 | 55 | 249 | 2.6 | 13.9 | 0.00 | 0.00 | 0.00 | 59 | 1010.6 |
| 20260503174508 | 55 | 246 | 5.2 | 11.3 | 0.00 | 0.00 | 0.00 | 60 | 1011.3 |
| 20260503173027 | 54 | 270 | 2.6 | 13.0 | 0.00 | 0.00 | 0.00 | 62 | 1011.6 |
| 20260503171526 | 53 | 225 | 2.6 | 13.0 | 0.00 | 0.00 | 0.00 | 65 | 1012.0 |
| 20260503081514 | 45 | 257 | 0.9 | 4.3 | 0.00 | 0.00 | 0.00 | 55 | 1014.0 |
| 20260503071510 | 46 | 208 | 0.9 | 3.5 | 0.00 | 0.00 | 0.00 | 54 | 1014.3 |
| 20260503054526 | 46 | 169 | 0.9 | 2.6 | 0.00 | 0.00 | 0.00 | 54 | 1015.2 |
| 20260503053034 | 46 | 172 | 0.0 | 2.6 | 0.00 | 0.00 | 0.00 | 55 | 1015.2 |
| 20260503051516 | 46 | 212 | 0.0 | 4.3 | 0.00 | 0.00 | 0.00 | 56 | 1015.4 |
| 20260503050010 | 45 | 185 | 0.0 | 3.5 | 0.00 | 0.00 | 0.00 | 58 | 1015.5 |
| 20260503043014 | 44 | 224 | 0.0 | 1.7 | 0.00 | 0.00 | 0.00 | 63 | 1015.6 |
| 20260503041526 | 43 | 240 | 0.0 | 0.0 | 0.00 | 0.00 | 0.00 | 64 | 1015.6 |